Location: The Saddle
(36.8333°N, 80.3417°W)
Time: 09:40:04
(UTC-05:00)

S-56A Canister/Altair - Pass Details

Date: 18 December 2023
Orbit: 640 x 2488 km, 38.9° (Epoch: 25 February)

Event Time Altitude Azimuth Distance (km) Brightness Sun altitude
Rises 07:07:29 0° 237° (WSW) 5,343 11.5 -4.6°
Reaches altitude 10° 07:11:28 10° 234° (SW) 4,066 11.0 -3.9°
Maximum altitude 07:21:25 63° 157° (SSE) 1,406 9.2 -2.1°
Drops below altitude 10° 07:27:56 10° 78° (ENE) 2,722 11.2 -1.0°
Sets 07:30:08 0° 74° (ENE) 3,495 11.7 -0.6°
